Flag for Germany Weather past 2 weeks in Norderstedt, Schleswig-Holstein, Germany

Now
43 °F

Partly sunny.


Feels Like: 40 °F
Forecast: 36 / 57 °F
Wind: 5 mph from North

Location: Hamburg-Fuhlsbuettel


UV Index: 3 (Moderate)

Visibility: N/A


Pressure: 29.92 "Hg

Humidity: 93%

Dew point: 41 °F

Location of NorderstedtLocation

Historic Weather in Norderstedt

°F

Norderstedt temperature yesterday

Maximum temperature yesterday: 61 °F (at 3:50 PM)
Minimum temperature yesterday: 39 °F (at 12:50 AM)
Average temperature yesterday: 50 °F

Past Weeks' High & Low Weather Summary

 TemperatureHumidityPressure
High66 °F (Apr 7, 4:50 PM)100% (Apr 4, 4:50 PM)30.45 "Hg (Apr 4, 4:50 PM)
Low30 °F (Apr 16, 3:50 AM)29% (Apr 16, 5:20 PM)29.65 "Hg (Apr 8, 5:20 AM)
Average49 °F79%29.99 "Hg
* Reported Apr 3 8:20 PM — Apr 18 8:20 PM, Norderstedt, Weather by CustomWeather, © 2014

Note: Actual official high and low records may vary slightly from our data, if they occured in-between our weather recording intervals... More about our weather records

Advertising

Historic Weather Conditions — Data for Previous 24 hours

 ConditionsComfort  
Time TempWeatherWind HumidityBarometerVisibility
8:20 PM
Apr 18
45 °FPartly sunny.3 mph87%29.92 "HgN/A
7:50 PM45 °FSprinkles. Broken clouds.5 mph87%29.92 "HgN/A
7:20 PM46 °FSprinkles. Partly sunny.5 mph87%29.89 "HgN/A
6:50 PM46 °FPartly sunny.5 mph87%29.89 "HgN/A
6:20 PM46 °FPartly sunny.9 mph82%29.89 "HgN/A
5:50 PM46 °FPartly sunny.6 mph87%29.89 "HgN/A
5:20 PM46 °FSprinkles. Partly sunny.6 mph87%29.89 "HgN/A
4:50 PM43 °FRain showers. Broken clouds.12 mph93%29.86 "Hg5 mi
4:20 PM45 °FRain showers. Broken clouds.13 mph81%29.86 "Hg6 mi
3:20 PM46 °FSprinkles. Broken clouds.7 mph87%29.86 "HgN/A
2:50 PM45 °FRain showers. Partly sunny.8 mph81%29.83 "HgN/A
2:20 PM50 °FSprinkles. Broken clouds.13 mph71%29.83 "HgN/A
1:50 PM50 °FSprinkles. Broken clouds.14 mph67%29.83 "HgN/A
1:20 PM48 °FSprinkles. Broken clouds.14 mph76%29.83 "HgN/A
12:50 PM48 °FPartly sunny.14 mph71%29.80 "HgN/A
12:20 PM48 °FPartly sunny.14 mph76%29.80 "HgN/A
11:50 AM48 °FBroken clouds.9 mph76%29.80 "HgN/A
11:20 AM48 °FBroken clouds.14 mph76%29.80 "HgN/A
10:50 AM46 °FPartly sunny.12 mph82%29.80 "HgN/A
10:20 AM46 °FSprinkles. Partly sunny.12 mph76%29.77 "HgN/A
9:50 AM45 °FSprinkles. Broken clouds.12 mph87%29.77 "HgN/A
9:20 AM45 °FBroken clouds.10 mph87%29.77 "HgN/A
8:50 AM45 °FSprinkles. Broken clouds.14 mph87%29.77 "HgN/A
8:20 AM45 °FBroken clouds.10 mph87%29.77 "HgN/A
7:50 AM43 °FPartly sunny.12 mph93%29.77 "HgN/A
7:20 AM43 °FPartly sunny.10 mph93%29.74 "HgN/A
6:50 AM43 °FSprinkles. Passing clouds.7 mph93%29.74 "HgN/A
6:20 AM43 °FRain showers. Partly cloudy.10 mph93%29.74 "Hg5 mi
5:50 AM43 °FSprinkles. Passing clouds.7 mph93%29.74 "HgN/A
5:20 AM43 °FSprinkles. Partly cloudy.10 mph93%29.74 "HgN/A
4:50 AM43 °FSprinkles. Passing clouds.8 mph93%29.74 "HgN/A
4:20 AM43 °FSprinkles. Partly cloudy.10 mph87%29.74 "HgN/A
3:50 AM43 °FSprinkles. Passing clouds.10 mph87%29.74 "HgN/A
3:20 AM43 °FPassing clouds.10 mph87%29.74 "HgN/A
2:50 AM43 °FSprinkles. Passing clouds.8 mph93%29.74 "HgN/A
2:20 AM43 °FPassing clouds.8 mph87%29.74 "HgN/A
1:50 AM43 °FPassing clouds.8 mph93%29.77 "HgN/A
1:20 AM45 °FPassing clouds.9 mph93%29.77 "HgN/A
12:50 AM45 °FPartly cloudy.9 mph93%29.77 "HgN/A
12:20 AM45 °FLight rain. Partly cloudy.9 mph93%29.77 "HgN/A
11:50 PM
Apr 17
45 °FRain. Passing clouds.10 mph93%29.80 "HgN/A
11:20 PM46 °FRain. Passing clouds.14 mph87%29.80 "Hg5 mi
10:50 PM48 °FRain. Passing clouds.14 mph87%29.80 "Hg6 mi
10:20 PM50 °FLight rain. Passing clouds.10 mph76%29.80 "HgN/A
9:50 PM50 °FLight rain. Passing clouds.14 mph76%29.80 "HgN/A
9:20 PM52 °FLight rain. Broken clouds.16 mph72%29.80 "HgN/A
Weather by CustomWeather, © 2014

See weather overview